map of PRG home
PRG - Airport
Location
City:  Prague, Prague, Czech Republic
Near (Alt.):Praha
Name:Václav Havel Airport Prague
Old (Alt.):Prague Ruzyne International Airport
ICAO:LKPR
IATA:PRG

Details
Type:Airport (Aerodrome, Airfield)
Use:Public/Civil, International (customs port of entry)
Latitude:50°06'03"N (50.100833)
Longitude:14°15'36"E (14.260000)
Datum:other
Elevation:1247 ft (380 m)
Variation:3.97°E (WMM2015 magnetic declination)
0.13° annual change
Runways:3
Longest:12189 × 148 ft (3715 × 45 m), paved

Time
Time Zone:UTC+1 (DST+2)
Local Time:

Weather
METAR:LKPR 151500Z 13006KT CAVOK 20/04 Q1017 NOSIG
TAF:LKPR 150500Z 1506/1612 13008KT CAVOK
TEMPO 1602/1608 VRB02KT= TAF LKMT 150500Z 1506/1612 22008KT CAVOK

Related Locations
Nearby:
Farthest:CHT: 11769 mi / 18940 km
Waitangi [Tuuta], CIT, NZ

Find:

   beyond  
but within

Other Information
Maps:
NOTAMs:
Links:
Sources:

  
  • flag of Czech Republic
  • flag of Prague
  

Sectional Chart

Flight Planning
at skyvector.com

Satellite Image

Google Maps Satellite view

 

Copyright © 2004-2018 Karl L. Swartz. All rights reserved.
The Great Circle Mapper name and logo are trademarks of the Great Circle Mapper.
All other trademarks mentioned herein belong to their respective owners.
Please see credits for attibutions and further copyright information.

  Follow gcmap on Facebook Follow gcmap on Twitter Follow gcmap on Google+ GCmap on LinkedIn

hCard Microformat

Geo Microformat